This is the latest recevied weather packets stored in our database for station/object IU4KCH-20. If no packets are shown the sender has not sent any weather packets the latest 10 day(s).
| Time | Temp. | Humidity | Pressure | Rain* | Wind** | Luminosity | Snow |
|---|---|---|---|---|---|---|---|
| 1777567250 | 25° C | 22% | 1019.8 hPa | - | - | - | - |
| 1777566349 | 29.44° C | 19% | 1019.7 hPa | - | - | - | - |
| 1777565448 | 24.44° C | 24% | 1019.8 hPa | - | - | - | - |
| 1777564549 | 24.44° C | 24% | 1019.8 hPa | - | - | - | - |
| 1777563647 | 24.44° C | 24% | 1019.8 hPa | - | - | - | - |
| 1777562746 | 27.78° C | 23% | 1019.9 hPa | - | - | - | - |
| 1777561845 | 26.11° C | 25% | 1019.7 hPa | - | - | - | - |
| 1777560944 | 26.67° C | 25% | 1019.7 hPa | - | - | - | - |
| 1777560043 | 31.11° C | 20% | 1019.8 hPa | - | - | - | - |
| 1777559142 | 35° C | 16% | 1019.8 hPa | - | - | - | - |
| 1777556440 | 35.56° C | 19% | 1020 hPa | - | - | - | - |
| 1777555540 | 32.22° C | 23% | 1020.1 hPa | - | - | - | - |
| 1777554638 | 33.33° C | 22% | 1020.3 hPa | - | - | - | - |
| 1777553737 | 25° C | 32% | 1020.5 hPa | - | - | - | - |
| 1777552837 | 26.67° C | 28% | 1020.5 hPa | - | - | - | - |
| 1777551936 | 32.22° C | 24% | 1020.7 hPa | - | - | - | - |
| 1777551035 | 30.56° C | 26% | 1020.8 hPa | - | - | - | - |
| 1777550134 | 25° C | 34% | 1021 hPa | - | - | - | - |
| 1777549236 | 23.33° C | 36% | 1021 hPa | - | - | - | - |
| 1777548332 | 23.33° C | 38% | 1021 hPa | - | - | - | - |
| 1777547432 | 22.78° C | 37% | 1021.2 hPa | - | - | - | - |
| 1777546531 | 21.67° C | 39% | 1021.2 hPa | - | - | - | - |
| 1777544729 | 20.56° C | 46% | 1021.3 hPa | - | - | - | - |
| 1777543828 | 20.56° C | 47% | 1021.3 hPa | - | - | - | - |
| 1777542927 | 20° C | 48% | 1021.3 hPa | - | - | - | - |
* Rain since midnight (hover to see other rain measurements)
** Current wind speed in m/s (hover to see current wind gust speed)